Regional Weather Roundup
Issued by NWS Sioux Falls, SD

Home | Current Version | Previous Version | Graphics & Text | Print | Product List | Glossary Off
Versions: 1 2 3 4 5 6 7 8 9 10 11 12 13 14 15 16 17 18 19 20 21 22 23 24 25 26 27 28 29 30 31 32 33 34 35 36 37 38 39 40 41 42 43 44 45 46 47 48 49 50

000
ASUS43 KFSD 240302
RWRFSD

WEATHER ROUNDUP FOR SE SOUTH DAKOTA/SW MINNESOTA/NW IOWA
NATIONAL WEATHER SERVICE SIOUX FALLS SD
900 PM CST SUN NOV 23 2014

NOTE: "FAIR" INDICATES FEW OR NO CLOUDS BELOW 12,000 FEET WITH NO
SIGNIFICANT WEATHER AND OR OBSTRUCTIONS TO VISIBILITY.


SDZ038>040-050-052>070-240400-
SOUTHEAST SOUTH DAKOTA

CITY           SKY/WX    TMP DP  RH WIND       PRES   REMARKS
CHAMBERLAIN    CLOUDY    28  19  68 NW21G30   29.66S WCI  15
HURON          CLOUDY    26  17  68 NW16G28   29.63S WCI  14
MADISON        CLOUDY    25  21  86 NW25G33   29.55S WCI   9
MITCHELL       NOT AVBL
SIOUX FALLS    CLOUDY    28  20  71 NW20G31   29.55F WCI  15
WINNER         CLOUDY    31  20  63 NW24G31   29.67F WCI  17
YANKTON        CLOUDY    32  19  59 NW20G28   29.61S WCI  20
$$

MNZ071-072-080-081-089-090-097-098-240400-
SOUTHWEST MINNESOTA

CITY           SKY/WX    TMP DP  RH WIND       PRES   REMARKS
FAIRMONT       CLOUDY    36  25  64 NW20G26   29.42S
JACKSON        CLOUDY    34  27  75 NW20G28   29.45S WCI  22
LUVERNE        CLOUDY    32  25  74 NW18G29   29.52S WCI  20
MARSHALL       CLOUDY    28  19  69 NW28G36   29.51S WCI  13
MONTEVIDEO     CLOUDY    28  25  86 N23       29.51S WCI  14
PIPESTONE      CLOUDY    28  21  74 N23G33    29.50S WCI  14
REDWOOD FALLS  CLOUDY    31  25  78 NW15G33   29.47S WCI  20
TRACY          CLOUDY    31  25  79 NW24G32   29.49F WCI  17
WINDOM         CLOUDY    32  27  80 NW23G31   29.45F WCI  19
WORTHINGTON    CLOUDY    30  25  80 NW23G29   29.47F WCI  17
$$

IAZ001>003-012>014-020>022-031-032-NEZ013-014-SDZ071-240400-
NORTHWEST IOWA

CITY           SKY/WX    TMP DP  RH WIND       PRES   REMARKS
DENISON        CLOUDY    37  28  70 NW21G31   29.48R
ESTHERVILLE    CLOUDY    33  26  75 NW23G33   29.44S WCI  21
SIOUX CITY     CLOUDY    35  23  61 NW26G37   29.55R WCI  22
SPENCER        CLOUDY    34  25  69 NW21G30   29.47S WCI  22
$$

ABBREVIATIONS USED IN REMARKS
   TC - TEMPERATURE IN CELSIUS
  WCI - WIND CHILL INDEX
   HX - HEAT INDEX
  VSB - VISIBILITY




USA.gov is the U.S. government's official web portal to all federal, state and local government web resources and services.